Regional Weather Roundup
Issued by NWS Bismarck, ND

Home | Current Version | Previous Version | Text Only | Print | Product List | Glossary On
Versions: 1 2 3 4 5 6 7 8 9 10 11 12 13 14 15 16 17 18 19 20 21 22 23 24 25 26 27 28 29 30 31 32 33 34 35 36 37 38 39 40 41 42 43 44 45 46 47 48 49 50
000
ASUS43 KBIS 010110
RWRBIS

NWR BROADCAST TEXT
NATIONAL WEATHER SERVICE BISMARCK ND
700 PM CST SAT FEB 28 2015

NOTE: "FAIR" INDICATES FEW OR NO CLOUDS BELOW 12,000 FEET WITH NO
SIGNIFICANT WEATHER AND/OR OBSTRUCTIONS TO VISIBILITY.


CITY           SKY/WX    TMP DP  RH WIND       PRES   REMARKS
WILLISTON      CLEAR     10   0  63 W3        30.14S
MINOT          CLEAR      7  -1  70 W8        30.14R WCI  -6
MINOT AFB      CLEAR      3  -1  83 W9        30.14R WCI -11
BISMARCK       PTCLDY    14   3  61 NW7       30.18R WCI   4
DICKINSON      CLEAR     10   2  69 NW8       30.10R WCI  -2
GARRISON         N/A      6  -1  73 NW8       30.15R WCI  -7
HETTINGER ARPT MOCLDY    14   4  64 W7        30.13R WCI   4
JAMESTOWN      PTCLDY    10   1  67 W16       30.16R WCI  -7
BEACH          FAIR      10   5  79 W8        30.13R WCI  -1
CARRINGTON     FAIR       5   0  78 MISG      30.15R
CROSBY         FAIR       1  -2  85 W7        30.13S WCI -11
HARVEY         FLURRIES   7   1  78 W10       30.15R WCI  -8
HAZEN          CLOUDY    10   1  67 NW7       30.18R WCI   0
LINTON         FAIR      10   5  79 NW8       30.18R WCI  -1
MANDAN         CLOUDY    10   1  67 NW7       30.17R WCI   0
OAKES            N/A     19  14  79 W18       30.17R WCI   4
RUGBY          FAIR       1  -2  85 W12       30.13R WCI -15
TIOGA          FAIR       0  -2  92 SW7       30.14R WCI -13
WATFORD CITY   FAIR      10   1  67 W5        30.12S WCI   2
$$

CITY           SKY/WX    TMP DP  RH WIND       PRES   REMARKS
GRAND FORKS    CLOUDY    18  10  71 W14       30.13R WCI   4
GRAND FORKS AF CLOUDY    15   6  67 NW14      30.15R WCI   0
DEVILS LAKE    CLEAR      7  -2  66 W15       30.12R WCI -11
FARGO          CLOUDY    24  17  74 S12       30.15S WCI  13
CANDO          FAIR       1  -2  85 NW13      30.12R WCI -16
CAVALIER       FAIR      10   5  79 W10       30.11R WCI  -3
GWINNER        CLOUDY    27  18  69 W13       30.16R WCI  16
ROLLA          FAIR       7   0  72 W9        30.07R WCI  -7
WALHALLA         N/A     10   3  72 W9        30.11R WCI  -2
$$

CITY           SKY/WX    TMP DP  RH WIND       PRES   REMARKS
ABERDEEN       MOCLDY    21  13  71 NW8       30.17R WCI  11
MOBRIDGE       CLEAR     13   4  67 N9        30.16R WCI   1
BUFFALO          N/A     17   7  64 W10       30.06R WCI   5
RAPID CITY     CLEAR     17   9  70 N10       30.11R WCI   5
GLASGOW        CLEAR     20   6  55 W13       30.13R WCI   7
SIDNEY         CLEAR     16   3  57 SW7       30.18S WCI   6
WOLF POINT     CLEAR     22   6  50 W10       30.15R WCI  11
GLENDIVE       CLEAR     16   3  57 W7        30.15S WCI   6
MILES CITY     MOCLDY    19   9  65 W5        30.15R WCI  12
BAKER          CLEAR     16   5  62 W8        30.12R WCI   5
$$

CITY           SKY/WX    TMP DP  RH WIND       PRES   REMARKS
BILLINGS       MOCLDY    25   7  46 S7        30.09R WCI  17
GREAT FALLS    PTCLDY    20  10  65 SW10      30.14R WCI   9
REGINA         CLOUDY     5   1  85 SW7       30.06F WCI  -7
ESTEVAN        PTCLDY     3  -2  78 SW8       30.11F WCI -10
$$




USA.gov is the U.S. government's official web portal to all federal, state and local government web resources and services.